Weather History for Rogers, AR

Change the Weather History Date:

Friday, November 30, 2012

  Actual Average Record
Temperature  
Mean Temperature 13 °C -  
Max Temperature 19 °C 10 °C 18 °C (2012)
Min Temperature 8 °C 1 °C -9 °C (2006)
Degree Days  
Heating Degree Days 9    
Growing Degree Days 6 (Base 50)    
Moisture  
Dew Point 7 °C    
Average Humidity 67    
Maximum Humidity 93    
Minimum Humidity 52    
Precipitation  
Precipitation 0.00 mm - - ()
Sea Level Pressure  
Sea Level Pressure 1019 hPa    
Wind  
Wind Speed 16 km/h (South)    
Max Wind Speed 27 km/h    
Max Gust Speed 35 km/h    
Visibility 15 kilometers    
Events      
Averages and records for this station are not official NWS values.
T = Trace of Precipitation, MM = Missing Value Source: NWS Daily Summary

Daily Weather History Graph

Daily Weather History Graph

Search for Another Location

Airport:

Trip Planner

Search our weather history database for the weather conditions in past years. The results will help you decide how hot, cold, wet, or windy it might be!

Date:

Astronomy

Nov. 30, 2012 Rise Set
Actual Time 7:08 AM CST 5:01 PM CST
Civil Twilight 6:40 AM CST 5:29 PM CST
Nautical Twilight 6:08 AM CST 6:01 PM CST
Astronomical Twilight 5:37 AM CST 6:32 PM CST
Moon 6:56 PM CST (11/30) 8:41 AM CST (11/30)
Length of Visible Light 10h 49m
Length of Day
9h 52m
Waning Gibbous, 96% of the Moon is Illuminated
Nov 30
Waning Gibbous
Dec 6
Last Quarter
Dec 13
New
Dec 19
First Quarter
Dec 28
Full

Hourly Weather History & Observations

Time (CST) Temp. Windchill Dew Point Humidity Pressure Visibility Wind Dir Wind Speed Gust Speed Precip Events Conditions
12:57 AM 8.9 °C - -0.6 °C 52% 1020.3 hPa 16.1 km South 14.8 km/h / 4.1 m/s - N/A   Clear
1:57 AM 8.9 °C - -0.6 °C 52% 1020.1 hPa 16.1 km SSE 14.8 km/h / 4.1 m/s - N/A   Clear
3:57 AM 7.8 °C 5.5 °C 0.0 °C 58% 1019.8 hPa 16.1 km SSE 13.0 km/h / 3.6 m/s - N/A   Clear
4:57 AM 8.3 °C - 1.1 °C 61% 1019.8 hPa 16.1 km SSE 13.0 km/h / 3.6 m/s - N/A   Clear
5:57 AM 8.9 °C - 2.2 °C 63% 1019.8 hPa 16.1 km SSE 11.1 km/h / 3.1 m/s - N/A   Clear
6:57 AM 7.8 °C 6.6 °C 2.2 °C 68% 1020.3 hPa 16.1 km SSE 7.4 km/h / 2.1 m/s - N/A   Clear
7:57 AM 9.4 °C - 3.9 °C 69% 1020.5 hPa 16.1 km South 13.0 km/h / 3.6 m/s - N/A   Clear
8:57 AM 13.3 °C - 6.1 °C 62% 1020.6 hPa 16.1 km South 24.1 km/h / 6.7 m/s - N/A   Clear
9:57 AM 15.6 °C - 8.3 °C 62% 1020.7 hPa 16.1 km SSW 27.8 km/h / 7.7 m/s 35.2 km/h / 9.8 m/s N/A   Clear
10:57 AM 16.7 °C - 9.4 °C 62% 1020.6 hPa 16.1 km South 24.1 km/h / 6.7 m/s - N/A   Clear
11:57 AM 18.3 °C - 10.6 °C 61% 1019.4 hPa 16.1 km SW 24.1 km/h / 6.7 m/s - N/A   Clear
12:57 PM 18.9 °C - 10.6 °C 59% 1018.5 hPa 16.1 km South 24.1 km/h / 6.7 m/s - N/A   Clear
1:57 PM 18.9 °C - 10.6 °C 59% 1018.2 hPa 16.1 km SSW 22.2 km/h / 6.2 m/s - N/A   Clear
2:57 PM 18.9 °C - 10.6 °C 59% 1017.9 hPa 16.1 km SSW 20.4 km/h / 5.7 m/s - N/A   Clear
3:57 PM 18.3 °C - 10.6 °C 61% 1018.1 hPa 16.1 km SSW 11.1 km/h / 3.1 m/s - N/A   Clear
4:57 PM 16.7 °C - 10.0 °C 65% 1018.1 hPa 16.1 km SSE 11.1 km/h / 3.1 m/s - N/A   Clear
6:57 PM 15.0 °C - 10.0 °C 72% 1018.1 hPa 16.1 km SE 11.1 km/h / 3.1 m/s - N/A   Clear
7:57 PM 13.9 °C - 10.0 °C 77% 1018.0 hPa 16.1 km SE 13.0 km/h / 3.6 m/s - N/A   Clear
8:57 PM 13.3 °C - 10.6 °C 84% 1018.1 hPa 16.1 km SSE 16.7 km/h / 4.6 m/s - N/A   Clear
9:57 PM 12.8 °C - 11.1 °C 89% 1018.0 hPa 12.9 km SSE 16.7 km/h / 4.6 m/s - N/A   Clear
10:57 PM 12.8 °C - 11.1 °C 89% 1018.1 hPa 11.3 km SE 11.1 km/h / 3.1 m/s - N/A   Clear
11:57 PM 12.2 °C - 11.1 °C 93% 1018.1 hPa 9.7 km South 9.3 km/h / 2.6 m/s - N/A   Clear